Wind_Speed
12 12 12 13 13 14 14 13 14 14 15 16 16 17 17 18 19 19 20 20 21 22 23 23 24 24 25 26 27 27 28 28 29 29 29 30 30 31
12 12 13 13 14 14 14 14 14 13 13 14 15 16 17 18 19 19 20 21 21 22 22 23 24 24 26 27 27 28 29 30 30 31 31 31 31 31
12 13 13 14 14 14 15 15 15 15 15 15 15 16 17 18 19 19 20 21 21 22 23 23 24 25 26 26 27 29 30 31 31 31 32 32 31 31
12 13 13 14 14 15 15 15 15 15 15 16 16 17 17 17 18 19 19 20 20 22 23 23 24 25 26 26 27 28 29 30 30 31 32 32 32 32
13 13 13 14 14 15 16 16 15 16 16 17 16 16 17 17 18 18 20 20 20 21 22 23 24 25 26 27 27 27 28 28 29 30 31 32 33 33
12 12 13 14 14 15 15 15 15 15 16 16 16 17 17 18 19 20 20 21 21 22 22 23 24 25 26 26 27 27 27 28 28 29 30 32 33 33
10 11 12 13 14 14 14 14 14 14 15 15 16 17 18 19 19 20 21 21 22 22 23 23 24 24 25 26 26 27 28 28 29 29 30 30 31 32
10 11 11 13 14 14 13 13 13 14 15 16 17 18 18 19 20 21 21 22 22 23 23 24 24 24 25 26 26 27 28 29 29 29 29 29 30 31
11 11 12 13 12 12 12 12 13 14 15 16 17 18 19 19 19 20 21 21 21 22 23 23 23 24 24 25 26 26 27 27 28 28 28 28 29 29
11 11 11 11 11 11 11 12 13 14 15 16 17 17 18 19 19 20 20 20 20 21 21 22 22 23 24 24 25 26 26 25 25 26 26 27 27 27
12 11 11 10 11 11 11 13 14 14 15 16 16 17 17 18 18 19 19 20 20 21 21 21 22 23 23 24 24 24 24 24 24 25 26 26 26 26
12 12 11 11 11 11 12 13 14 15 16 17 17 17 17 17 18 19 19 20 20 21 21 21 22 23 23 23 23 23 23 23 24 24 25 25 25 25
12 12 11 11 11 12 12 13 13 14 15 16 17 17 17 18 18 19 20 20 20 20 21 21 22 22 22 23 22 23 22 22 23 23 23 23 23 23
12 11 11 11 11 11 12 12 13 14 15 15 16 16 17 18 19 19 20 21 21 21 21 21 22 22 23 22 22 22 22 22 22 22 21 21 21 22
11 10 10 11 11 12 12 13 13 14 14 15 15 16 17 18 18 19 20 21 21 20 20 21 21 21 22 21 21 21 21 21 21 21 20 20 20 21
11 11 11 11 12 12 13 13 14 14 15 15 15 16 17 18 18 20 20 20 20 20 20 20 21 21 21 20 20 20 20 20 20 20 19 19 19 19
11 11 11 11 12 13 13 13 14 14 15 16 16 17 17 18 19 20 20 19 19 20 20 21 21 21 20 20 19 19 19 20 20 19 19 18 18 18
11 12 12 12 13 13 14 14 15 15 16 16 17 18 18 18 19 19 19 19 19 19 20 20 20 19 19 18 18 18 19 19 19 19 18 18 18 18
12 12 13 13 13 14 15 16 17 17 17 18 18 18 19 19 20 19 19 19 19 19 19 19 19 18 18 18 18 17 18 18 18 18 17 17 17 18
12 13 13 13 14 15 16 16 17 17 18 18 18 19 20 20 20 19 19 19 19 19 19 18 18 18 17 17 17 17 17 18 18 18 18 17 17 18
13 13 13 14 14 15 15 16 16 17 17 18 18 19 20 20 20 19 19 19 19 18 19 19 18 17 17 17 17 17 18 18 18 18 18 18 18 17
14 14 15 15 15 15 16 16 16 17 17 18 19 19 20 20 19 19 19 19 19 18 18 18 18 18 17 17 17 17 18 18 19 20 19 18 17 17
14 15 15 16 16 15 15 15 16 17 18 19 19 20 20 20 19 19 19 19 19 19 19 19 19 18 18 18 18 18 18 19 19 20 19 19 18 18
Wind_Direction
271 272 271 271 272 273 272 269 268 267 266 268 269 269 269 271 273 275 276 276 276 276 274 273 273 272 271 271 270 270 270 269 268 266 265 266 265 263
270 271 271 273 275 276 275 272 271 268 270 271 273 274 274 275 274 276 277 277 278 277 276 276 275 274 274 274 273 272 271 271 270 269 268 267 266 265
272 273 273 274 277 278 277 274 270 268 270 273 276 278 277 276 276 278 277 277 279 279 277 277 277 277 277 277 276 275 273 272 270 269 268 266 265 264
273 274 275 277 278 279 278 277 272 270 270 272 275 278 278 278 278 279 280 281 283 283 280 280 279 279 278 279 279 277 276 274 272 270 268 267 265 264
273 273 276 279 281 281 280 277 272 271 272 273 275 278 279 280 280 282 282 284 285 286 285 284 284 282 281 281 280 279 278 277 275 273 269 267 266 265
275 276 278 279 282 285 283 280 275 273 274 274 278 280 281 281 282 283 283 286 287 288 287 287 287 285 284 283 282 280 278 277 277 276 272 268 266 264
283 283 282 281 284 286 285 281 276 276 277 277 280 282 281 282 284 285 286 287 288 289 289 289 289 287 286 285 285 283 280 279 278 277 275 271 269 267
287 288 288 288 288 288 288 285 280 281 281 281 281 283 284 287 288 290 288 288 290 291 291 291 290 289 288 287 286 285 284 282 279 278 277 274 271 269
291 291 290 293 292 289 287 287 287 287 287 287 286 285 285 288 290 292 292 291 292 293 293 293 292 291 291 290 289 288 287 285 283 279 277 276 274 272
294 294 296 296 293 290 286 288 293 294 293 290 291 292 291 292 293 292 295 296 295 295 297 296 295 294 294 293 294 293 290 288 286 283 280 278 276 274
297 296 298 296 294 291 290 290 292 294 297 296 295 294 294 298 299 297 298 298 297 297 298 298 297 297 297 298 298 296 293 290 289 287 284 279 276 275
295 292 292 293 293 292 292 292 295 298 299 298 297 298 299 299 300 301 301 301 298 299 301 300 299 299 300 300 299 298 297 295 293 289 287 282 278 276
293 289 287 289 292 294 294 294 297 300 303 301 298 298 300 300 301 301 302 302 301 300 301 301 301 301 302 302 301 301 301 300 298 294 290 285 281 279
294 290 287 289 292 294 297 298 299 302 305 305 300 300 301 302 302 302 302 302 303 302 301 301 302 302 304 304 303 304 304 304 302 299 294 288 284 283
297 294 289 290 293 295 296 298 301 305 308 308 307 305 305 303 302 303 304 306 307 306 305 305 306 307 308 307 307 306 306 305 303 301 296 291 288 286
296 295 294 294 296 298 299 302 303 304 307 311 312 310 309 309 308 307 308 310 309 307 306 306 307 309 311 311 310 309 309 309 307 305 302 297 295 292
295 293 293 293 295 299 302 303 304 306 309 309 311 313 312 311 312 312 311 311 310 310 310 310 309 309 309 312 312 312 312 311 310 307 303 301 299 296
299 297 291 292 294 297 300 302 305 307 309 312 312 314 315 315 313 315 314 312 313 314 314 315 314 312 312 312 310 311 313 314 313 310 307 305 304 301
303 301 297 294 295 298 301 303 305 308 309 310 313 315 316 316 315 313 314 312 313 316 317 317 317 316 315 315 315 313 314 316 316 314 312 311 307 303
308 305 302 300 299 300 302 304 305 307 309 309 310 313 315 316 316 314 313 312 312 315 317 316 315 315 314 315 316 315 317 319 319 317 315 315 314 308
311 309 307 307 304 301 301 303 306 307 308 309 311 312 313 315 317 316 313 312 314 315 317 315 314 314 315 314 315 316 317 319 319 320 318 316 314 311
308 308 306 305 306 303 303 304 306 307 308 310 311 311 311 313 315 315 314 312 314 313 315 315 313 312 312 312 313 313 314 315 317 318 318 318 316 311
305 306 305 305 305 305 308 307 307 308 310 312 311 310 310 311 312 312 311 309 309 311 314 314 312 311 312 311 311 311 310 311 314 315 316 317 316 315
Height
5790 5789 5789 5789 5788 5788 5787 5787 5787 5786 5786 5785 5785 5785 5784 5783 5783 5782 5782 5781 5780 5779 5778 5777 5777 5776 5775 5774 5774 5773 5772 5771 5770 5770 5769 5769 5769 5769
5785 5785 5785 5784 5784 5783 5783 5782 5781 5781 5781 5781 5780 5779 5779 5778 5777 5776 5776 5774 5773 5772 5771 5770 5769 5768 5767 5766 5765 5764 5764 5763 5762 5761 5760 5760 5760 5760
5780 5780 5780 5779 5779 5779 5778 5777 5777 5776 5776 5776 5775 5774 5773 5772 5771 5770 5769 5768 5767 5765 5764 5763 5762 5760 5759 5758 5757 5756 5755 5753 5752 5751 5751 5751 5750 5751
5776 5776 5775 5775 5775 5774 5773 5772 5772 5771 5771 5770 5770 5769 5768 5766 5765 5764 5763 5762 5760 5759 5757 5756 5754 5753 5751 5750 5749 5747 5746 5744 5743 5742 5742 5741 5741 5741
5771 5771 5771 5770 5770 5769 5768 5767 5766 5766 5766 5765 5764 5763 5762 5761 5759 5758 5757 5755 5754 5752 5750 5748 5746 5745 5743 5742 5740 5739 5737 5736 5734 5733 5732 5731 5731 5731
5767 5767 5766 5766 5765 5764 5763 5762 5761 5761 5760 5760 5759 5758 5756 5755 5754 5752 5751 5749 5747 5745 5743 5741 5739 5737 5735 5734 5732 5730 5729 5727 5725 5724 5722 5721 5721 5721
5763 5762 5762 5761 5760 5759 5758 5757 5757 5756 5755 5754 5753 5752 5751 5749 5748 5746 5745 5743 5741 5738 5736 5734 5732 5730 5728 5726 5724 5722 5720 5718 5716 5714 5713 5711 5711 5710
5760 5759 5758 5757 5756 5755 5754 5753 5752 5752 5751 5749 5748 5747 5746 5744 5742 5740 5738 5737 5735 5733 5730 5728 5725 5723 5720 5718 5716 5713 5711 5709 5707 5705 5703 5702 5701 5700
5757 5755 5754 5753 5752 5751 5750 5749 5748 5747 5746 5745 5743 5742 5740 5738 5737 5734 5732 5730 5728 5725 5723 5721 5718 5715 5713 5710 5707 5705 5702 5700 5698 5696 5694 5692 5691 5690
5753 5752 5750 5749 5748 5747 5746 5745 5744 5742 5741 5740 5738 5736 5734 5732 5730 5728 5726 5724 5721 5718 5716 5714 5711 5708 5705 5702 5699 5696 5693 5691 5689 5687 5685 5683 5682 5680
5750 5748 5747 5746 5745 5743 5742 5741 5740 5738 5736 5734 5732 5730 5729 5727 5725 5722 5720 5718 5715 5713 5710 5707 5705 5701 5698 5695 5692 5689 5685 5683 5680 5678 5676 5674 5673 5671
5746 5745 5744 5743 5741 5740 5739 5737 5735 5733 5731 5729 5727 5725 5723 5721 5719 5717 5715 5712 5709 5707 5704 5701 5698 5695 5692 5689 5685 5682 5679 5676 5673 5670 5668 5666 5664 5663
5742 5741 5740 5739 5738 5736 5735 5733 5731 5729 5727 5724 5723 5721 5719 5716 5714 5712 5709 5707 5704 5701 5698 5695 5692 5688 5685 5682 5679 5676 5672 5669 5666 5663 5660 5658 5657 5655
5738 5737 5736 5735 5734 5732 5731 5729 5727 5725 5723 5720 5718 5716 5714 5712 5710 5707 5705 5702 5698 5695 5692 5689 5686 5682 5679 5676 5673 5669 5666 5662 5659 5656 5653 5651 5650 5648
5735 5733 5732 5731 5730 5729 5727 5725 5723 5721 5719 5717 5714 5712 5710 5708 5705 5702 5699 5696 5693 5689 5686 5683 5680 5677 5673 5670 5666 5663 5660 5657 5653 5650 5647 5645 5643 5642
5731 5730 5729 5727 5726 5725 5723 5721 5719 5717 5715 5713 5711 5708 5706 5703 5700 5697 5694 5691 5688 5685 5682 5678 5675 5672 5668 5665 5661 5657 5654 5651 5648 5645 5642 5639 5637 5636
5728 5726 5725 5724 5723 5721 5719 5717 5715 5713 5711 5709 5707 5704 5702 5699 5696 5693 5689 5686 5683 5680 5677 5673 5670 5666 5663 5660 5656 5653 5650 5647 5644 5640 5638 5635 5632 5631
5725 5723 5721 5720 5719 5717 5716 5714 5711 5709 5707 5705 5702 5700 5698 5695 5692 5688 5685 5682 5678 5675 5672 5669 5665 5662 5659 5656 5653 5650 5646 5643 5640 5636 5633 5631 5629 5626
5721 5720 5718 5716 5715 5714 5712 5710 5708 5705 5703 5701 5698 5696 5693 5690 5687 5684 5680 5677 5674 5671 5668 5664 5661 5658 5655 5653 5650 5646 5643 5640 5636 5633 5630 5627 5625 5622
5718 5716 5715 5713 5711 5710 5708 5706 5703 5701 5699 5696 5694 5692 5689 5686 5683 5679 5676 5673 5670 5667 5664 5660 5657 5654 5652 5649 5646 5643 5640 5637 5633 5630 5627 5623 5621 5618
5715 5713 5711 5709 5707 5705 5703 5701 5699 5697 5694 5692 5689 5687 5684 5681 5678 5675 5671 5668 5665 5662 5659 5656 5653 5650 5647 5645 5642 5640 5637 5633 5630 5627 5624 5620 5618 5614
5712 5710 5708 5706 5704 5702 5699 5697 5695 5692 5690 5687 5685 5682 5679 5676 5673 5670 5667 5664 5661 5658 5655 5652 5649 5646 5644 5641 5638 5636 5633 5630 5626 5623 5620 5617 5613 5611
5708 5706 5704 5702 5700 5698 5695 5693 5691 5688 5685 5683 5680 5678 5675 5672 5669 5666 5663 5660 5656 5654 5651 5648 5645 5642 5639 5637 5634 5631 5629 5626 5622 5619 5616 5612 5609 5606